Wind_Speed
18 14 11 10 10 10 13 14 14 15 16 17 17 19 21 22 22 22 23 24 25 23 19 20 24 24 24 24 23 24 25 20 20 21 25 25 18 11 11 12 12 15 13
18 15 11 11 13 13 13 14 13 15 17 19 19 20 21 20 19 20 23 25 29 28 24 22 22 25 25 26 25 26 26 24 23 23 23 22 21 18 16 16 16 14 16
16 14 12 11 13 14 14 14 15 16 18 19 20 21 22 21 19 19 22 27 36 31 27 24 22 24 26 27 27 29 28 27 27 26 25 23 21 19 18 18 17 16 16
18 15 13 13 14 13 14 15 16 17 19 20 21 23 24 22 22 22 25 32 30 31 33 27 23 25 27 26 28 29 28 26 27 24 23 22 19 18 17 16 15 15 15
17 15 14 13 14 14 14 15 18 20 22 22 22 23 25 23 22 23 22 14 19 25 26 33 26 25 23 29 28 27 26 25 25 24 23 20 19 20 18 16 13 12 11
20 15 13 11 12 13 14 15 15 16 18 19 20 21 25 23 20 22 20 18 18 21 25 22 28 25 23 30 28 27 26 26 25 24 23 21 19 18 17 17 14 13 12
21 15 12 10 11 11 12 12 12 13 15 16 18 20 23 24 18 21 20 19 21 20 15 21 23 24 25 26 28 26 27 27 25 24 21 20 19 19 16 16 14 12 11
22 16 13 11 12 11 13 12 11 11 13 17 18 20 21 23 20 19 20 16 13 16 24 11 8 12 26 26 28 27 28 25 24 24 23 21 20 18 16 16 15 12 11
24 19 16 13 12 13 13 13 12 12 13 16 19 21 21 22 20 18 17 16 17 15 17 18 10 8 16 23 27 27 28 25 25 25 25 22 20 17 17 16 16 13 13
24 22 19 18 14 14 14 15 13 14 15 16 18 20 21 23 20 19 17 17 15 14 16 19 17 13 13 17 23 25 28 27 27 26 24 21 21 20 18 16 17 15 14
26 25 22 22 19 17 15 16 17 17 16 17 18 19 21 21 23 19 17 14 13 13 15 21 14 17 14 14 17 21 25 28 27 26 23 23 23 21 18 16 18 17 17
27 28 27 25 23 19 19 17 19 19 18 18 19 19 20 22 21 21 17 14 13 13 14 17 16 19 18 16 15 17 20 23 29 26 25 23 22 22 20 17 17 18 18
29 29 30 30 27 23 21 20 20 22 21 20 20 19 19 21 20 21 18 13 14 15 14 18 19 19 20 18 17 21 20 21 26 26 24 24 23 20 20 18 17 18 17
30 29 29 31 30 27 23 23 22 23 24 23 22 20 20 20 19 20 20 16 13 15 15 17 17 22 20 16 21 22 19 23 24 26 27 24 23 21 19 17 15 18 18
36 29 28 32 29 30 26 25 24 24 25 24 23 22 20 19 19 18 18 16 14 14 15 15 16 23 22 19 23 21 18 22 22 23 27 24 22 21 19 15 16 16 8
40 34 31 28 31 28 27 29 27 24 24 25 24 23 21 19 20 16 16 16 14 14 16 14 16 21 21 19 20 19 21 21 21 23 26 23 25 21 19 18 15 15 8
41 42 35 31 29 30 26 29 30 24 26 24 23 23 21 20 21 16 14 15 14 13 16 16 16 24 22 22 20 25 20 17 19 25 24 23 25 21 21 23 19 17 14
42 42 42 34 29 30 27 28 31 25 27 24 23 23 23 20 22 19 14 13 15 15 15 17 16 20 21 20 24 25 25 19 20 25 25 22 25 25 22 23 21 19 16
43 42 43 40 30 30 28 27 30 27 27 22 24 22 23 23 23 22 18 13 14 16 16 17 19 18 21 23 26 31 24 23 21 23 25 22 24 23 25 25 24 20 20
43 43 43 42 33 30 29 27 27 28 27 23 23 22 22 23 25 24 21 16 15 15 19 19 21 24 23 21 28 33 30 27 24 23 27 23 24 26 24 24 25 22 22
44 44 42 39 32 29 29 27 27 30 29 26 22 23 23 23 23 26 21 19 15 16 18 21 23 23 24 25 24 31 35 27 27 24 26 25 24 24 25 26 26 24 21
42 40 36 34 30 27 30 28 28 30 29 29 25 21 23 24 22 25 23 21 18 17 17 20 24 26 26 26 27 27 33 33 29 30 28 30 28 26 28 28 28 26 24
43 37 37 34 30 31 33 32 28 30 29 30 23 24 24 23 21 23 24 22 21 20 19 20 23 25 27 28 23 25 31 36 34 35 36 33 31 29 29 29 30 28 27
44 39 40 38 32 34 33 31 29 31 31 30 27 29 25 24 22 21 23 24 23 24 22 21 23 27 29 30 28 30 31 31 30 32 36 35 34 31 30 30 29 30 31
42 42 39 36 34 37 35 32 32 34 34 32 31 31 26 25 24 21 22 24 23 26 27 24 24 26 29 29 26 25 29 32 37 32 36 36 38 34 32 34 34 33 33
49 44 41 36 37 36 36 32 33 36 35 33 33 32 28 27 27 22 23 23 24 27 29 27 26 26 30 32 28 29 31 38 36 36 31 37 35 36 37 37 38 37 36
Wind_Direction
306 307 300 306 282 273 279 283 295 292 294 299 302 299 299 298 293 289 282 272 268 265 260 244 233 232 230 227 226 224 226 229 227 227 229 234 257 239 226 227 240 241 237
298 299 297 296 288 280 281 282 290 299 298 299 303 305 303 308 315 307 288 276 265 257 250 238 231 228 221 222 223 223 224 223 228 225 230 238 249 254 248 241 244 235 239
300 302 294 279 278 276 274 276 287 294 298 302 305 308 307 316 322 306 298 288 281 242 235 232 226 222 219 219 221 224 221 222 227 231 235 238 241 244 243 241 239 236 231
293 297 290 274 270 273 280 283 283 285 291 299 305 307 308 312 318 315 307 317 292 246 229 214 216 220 222 226 223 223 223 223 223 231 234 237 237 236 237 236 237 237 238
287 289 286 270 264 265 271 279 285 290 293 296 300 302 304 315 318 316 318 341 317 266 227 207 206 216 220 230 225 223 227 229 229 230 233 230 232 235 236 238 238 237 242
276 277 279 275 263 264 272 276 281 290 299 303 302 303 306 315 321 319 315 311 297 254 220 227 210 207 212 225 222 220 222 224 225 227 228 233 237 237 235 237 238 241 242
267 265 272 282 285 285 283 281 286 296 303 306 307 305 310 318 321 320 312 312 314 198 294 261 248 206 216 225 220 221 218 222 221 225 230 234 236 234 236 237 233 232 234
267 264 266 269 278 283 283 285 284 293 305 309 312 309 314 318 324 316 312 314 295 269 268 241 243 220 221 232 220 217 218 222 222 227 229 230 233 232 232 237 232 227 220
262 263 268 269 273 281 288 290 299 302 305 307 309 310 315 318 321 317 311 309 298 289 264 259 248 243 233 228 221 221 221 219 223 225 229 230 234 234 234 234 226 222 233
259 264 269 276 270 276 285 289 296 298 301 304 308 311 312 316 320 318 314 310 307 302 269 269 269 241 235 235 225 222 223 221 226 227 229 233 235 234 232 232 227 231 227
262 267 271 277 280 279 284 289 290 295 298 300 305 311 312 314 320 319 309 299 300 291 271 260 247 234 227 223 227 225 225 225 233 230 227 231 233 235 232 234 235 240 244
261 268 271 275 278 282 286 289 289 292 295 296 301 306 307 308 317 315 308 293 295 285 276 269 256 234 235 238 215 215 229 227 233 231 228 231 232 238 235 228 238 243 245
257 262 270 273 275 276 283 286 291 291 292 294 298 301 304 304 307 315 308 291 285 284 272 270 258 245 234 241 237 238 242 231 232 231 228 231 236 233 237 238 239 243 241
260 259 261 269 273 276 277 284 289 291 291 291 296 298 303 306 303 316 306 300 284 290 268 277 260 240 234 240 233 238 242 243 234 226 226 229 232 236 232 235 240 254 258
252 251 261 265 269 275 279 280 283 287 288 287 291 295 301 307 301 320 311 302 294 286 275 282 259 231 231 235 238 239 251 234 234 226 228 230 234 228 231 228 241 263 246
260 257 254 256 267 269 277 279 281 284 284 286 288 292 298 304 300 318 314 301 292 282 274 281 267 231 229 231 228 237 246 217 223 224 229 231 231 231 229 229 243 218 245
260 264 259 255 254 267 268 275 280 281 282 283 284 288 292 299 300 304 318 303 300 284 282 276 276 246 233 226 227 234 242 230 227 230 235 230 234 240 240 236 243 245 254
258 261 267 260 256 258 266 270 275 279 277 281 282 286 291 298 301 303 310 310 291 290 280 271 276 259 226 225 229 239 238 228 231 231 239 232 236 240 241 241 246 240 256
255 257 261 263 257 254 257 259 268 271 273 277 277 280 287 293 298 302 300 311 297 285 280 273 266 266 250 236 235 231 240 228 229 233 238 235 238 238 240 242 244 249 256
251 254 255 257 251 242 249 254 262 267 267 269 275 279 284 289 294 297 298 299 303 289 278 273 266 261 266 259 253 234 238 230 228 232 235 233 237 244 241 243 245 244 258
247 248 252 252 249 235 243 249 254 260 260 266 268 273 280 283 292 291 294 294 300 292 280 272 268 264 265 260 275 239 235 238 234 237 230 233 234 245 245 245 250 250 255
247 247 246 246 240 237 245 245 248 253 255 261 260 273 271 277 287 286 290 292 295 295 285 280 268 258 262 259 270 253 251 244 248 247 238 235 236 240 249 250 251 255 262
240 243 244 242 243 245 243 246 246 250 251 258 261 262 262 270 278 280 284 289 293 295 286 286 276 262 257 255 267 252 255 249 253 248 253 237 237 241 249 253 257 258 259
247 241 245 246 244 248 245 245 244 246 249 250 250 257 260 265 270 278 282 286 291 294 288 282 283 263 258 262 270 264 261 249 241 245 240 242 233 234 245 250 255 259 263
245 244 243 245 245 246 248 245 245 245 244 246 248 253 257 263 267 272 279 285 290 293 292 273 279 275 262 257 270 268 260 248 243 247 245 244 233 230 239 248 254 258 262
234 239 244 243 242 247 250 248 247 248 247 247 250 251 255 259 267 270 274 279 289 294 293 277 272 278 271 260 267 271 264 249 245 249 251 240 237 237 239 244 253 260 262
Height
5847 5846 5845 5844 5844 5843 5843 5843 5842 5840 5839 5838 5836 5834 5832 5831 5830 5829 5828 5826 5825 5824 5825 5825 5826 5829 5832 5834 5836 5838 5839 5842 5844 5846 5846 5847 5847 5849 5849 5851 5852 5854 5856
5845 5843 5842 5842 5842 5842 5842 5841 5840 5839 5837 5836 5834 5832 5829 5828 5826 5825 5823 5820 5819 5819 5820 5820 5823 5825 5827 5830 5832 5834 5835 5837 5839 5842 5843 5845 5846 5846 5848 5850 5851 5853 5853
5842 5840 5839 5839 5840 5840 5839 5838 5838 5836 5835 5833 5832 5830 5827 5825 5823 5820 5817 5814 5810 5808 5812 5815 5817 5820 5822 5826 5828 5830 5833 5836 5837 5837 5840 5842 5842 5844 5846 5847 5849 5850 5850
5839 5837 5836 5836 5837 5836 5836 5836 5835 5834 5833 5831 5830 5828 5823 5821 5819 5816 5813 5808 5802 5803 5801 5806 5812 5815 5819 5823 5824 5827 5831 5832 5834 5835 5836 5838 5839 5841 5843 5845 5845 5847 5848
5836 5835 5834 5833 5833 5833 5832 5832 5833 5831 5830 5828 5827 5824 5820 5818 5816 5812 5810 5808 5808 5804 5800 5799 5807 5812 5816 5818 5821 5825 5829 5830 5831 5833 5834 5835 5837 5840 5841 5843 5844 5846 5847
5834 5833 5831 5830 5829 5829 5829 5829 5828 5827 5826 5825 5823 5820 5817 5816 5813 5809 5808 5809 5808 5803 5800 5804 5802 5808 5812 5813 5818 5821 5825 5827 5829 5830 5832 5835 5837 5839 5840 5841 5842 5844 5845
5830 5830 5828 5826 5826 5826 5825 5825 5824 5824 5823 5822 5819 5817 5814 5812 5810 5808 5806 5807 5804 5804 5804 5805 5806 5805 5808 5811 5815 5818 5820 5823 5827 5828 5832 5833 5834 5836 5839 5840 5840 5842 5843
5825 5826 5825 5824 5823 5823 5822 5822 5821 5820 5820 5818 5817 5814 5812 5809 5808 5804 5804 5804 5805 5806 5805 5804 5805 5805 5807 5808 5811 5814 5817 5821 5824 5825 5829 5831 5833 5835 5837 5838 5839 5840 5841
5821 5821 5821 5820 5820 5819 5819 5819 5818 5817 5816 5815 5814 5812 5809 5807 5805 5803 5801 5801 5801 5802 5803 5804 5803 5802 5806 5806 5810 5812 5815 5819 5821 5822 5825 5829 5831 5834 5835 5836 5837 5838 5840
5817 5817 5817 5817 5816 5816 5816 5816 5815 5814 5813 5812 5811 5809 5807 5804 5803 5800 5798 5797 5797 5798 5798 5800 5800 5802 5803 5806 5808 5810 5812 5816 5819 5820 5823 5827 5829 5831 5833 5834 5835 5836 5836
5812 5812 5813 5813 5813 5813 5813 5813 5812 5811 5810 5809 5807 5807 5804 5802 5800 5798 5796 5796 5796 5796 5798 5798 5799 5800 5801 5803 5806 5808 5809 5813 5816 5817 5820 5824 5826 5828 5830 5831 5833 5834 5834
5808 5807 5808 5809 5810 5810 5810 5810 5809 5809 5808 5806 5804 5803 5803 5799 5798 5796 5795 5794 5793 5795 5795 5795 5796 5797 5797 5800 5804 5805 5808 5810 5813 5812 5816 5821 5822 5825 5826 5828 5830 5831 5832
5802 5804 5804 5804 5805 5807 5807 5807 5806 5806 5805 5803 5801 5800 5799 5797 5796 5793 5792 5793 5791 5792 5791 5793 5793 5793 5794 5797 5800 5802 5805 5807 5809 5809 5813 5817 5819 5822 5824 5826 5827 5828 5829
5795 5798 5799 5799 5800 5801 5803 5803 5803 5802 5801 5800 5798 5796 5795 5794 5793 5791 5787 5787 5788 5786 5788 5788 5789 5789 5790 5793 5796 5799 5801 5802 5803 5806 5809 5813 5816 5819 5821 5823 5824 5825 5825
5787 5792 5794 5793 5795 5796 5797 5798 5799 5798 5798 5796 5795 5793 5791 5791 5791 5787 5784 5783 5783 5783 5784 5784 5785 5786 5789 5790 5793 5796 5795 5797 5798 5803 5807 5811 5813 5816 5818 5820 5821 5822 5821
5777 5783 5787 5789 5788 5790 5792 5791 5793 5794 5793 5792 5791 5790 5787 5787 5787 5785 5783 5780 5781 5781 5780 5781 5781 5783 5784 5787 5789 5791 5792 5793 5796 5801 5803 5807 5810 5812 5814 5816 5817 5818 5819
5769 5770 5778 5783 5783 5783 5786 5785 5786 5789 5788 5788 5787 5786 5784 5783 5783 5782 5781 5779 5777 5778 5776 5777 5778 5779 5781 5782 5784 5787 5788 5792 5795 5798 5799 5803 5806 5809 5810 5812 5813 5815 5816
5762 5763 5764 5773 5776 5777 5779 5779 5779 5782 5783 5782 5783 5782 5780 5778 5778 5778 5777 5778 5775 5774 5775 5775 5775 5777 5777 5779 5780 5782 5785 5788 5791 5793 5795 5799 5802 5805 5806 5808 5810 5811 5812
5753 5757 5758 5761 5768 5770 5771 5773 5773 5775 5777 5776 5776 5777 5775 5774 5774 5774 5774 5772 5772 5771 5771 5772 5772 5773 5774 5776 5778 5778 5780 5785 5787 5789 5791 5795 5798 5800 5802 5804 5806 5807 5808
5742 5747 5751 5753 5759 5763 5763 5765 5766 5768 5770 5770 5770 5770 5771 5769 5770 5769 5769 5769 5768 5767 5767 5767 5768 5769 5770 5772 5773 5772 5774 5780 5783 5785 5786 5790 5793 5796 5797 5799 5801 5802 5803
5731 5737 5740 5744 5749 5755 5756 5758 5759 5760 5761 5764 5764 5764 5765 5765 5765 5765 5764 5764 5764 5764 5763 5762 5763 5764 5765 5765 5768 5768 5770 5773 5778 5780 5780 5784 5788 5791 5793 5794 5796 5798 5798
5719 5725 5731 5735 5740 5744 5747 5750 5751 5753 5755 5755 5757 5759 5759 5759 5760 5759 5759 5759 5759 5759 5758 5757 5757 5757 5759 5760 5762 5762 5764 5769 5771 5776 5776 5778 5782 5786 5788 5789 5790 5792 5794
5709 5717 5722 5726 5731 5735 5738 5740 5744 5745 5747 5749 5750 5751 5751 5752 5753 5753 5754 5753 5753 5753 5751 5751 5750 5751 5751 5753 5754 5755 5756 5762 5766 5768 5771 5772 5776 5778 5781 5783 5785 5786 5788
5699 5708 5710 5716 5722 5724 5728 5732 5735 5737 5739 5741 5741 5743 5744 5745 5746 5747 5747 5747 5746 5746 5746 5744 5744 5745 5744 5747 5746 5748 5750 5754 5757 5760 5763 5766 5768 5772 5775 5777 5779 5780 5781
5689 5693 5700 5706 5712 5714 5718 5723 5725 5727 5729 5732 5733 5734 5736 5737 5739 5740 5740 5740 5739 5739 5739 5738 5737 5737 5737 5739 5740 5740 5742 5746 5748 5753 5756 5760 5762 5765 5767 5769 5770 5772 5773
5677 5684 5689 5696 5702 5706 5709 5713 5716 5718 5721 5724 5726 5727 5729 5730 5731 5732 5732 5733 5733 5732 5731 5730 5729 5730 5730 5731 5732 5733 5734 5738 5742 5746 5748 5750 5756 5759 5761 5762 5763 5763 5766